Time,TemperatureF,DewpointF,PressureIn,WindDirection,WindDirectionDegrees,WindSpeedMPH,WindSpeedGustMPH,Humidity,HourlyPrecipIn,Conditions,Clouds,dailyrainin,SolarRadiationWatts/m^2,SoftwareType,DateUTC
2013-02-19 00:03:00,41.4,38.7,30.26,WSW,244,0.0,0.0,90,0.00,,,0.00,0,Wunderground v.1.15,2013-02-19 05:03:00,
2013-02-19 00:13:00,41.4,38.7,30.26,WSW,244,0.0,0.0,90,0.00,,,0.00,0,Wunderground v.1.15,2013-02-19 05:13:00,
2013-02-19 00:23:00,41.3,38.9,30.26,WSW,244,0.0,0.0,91,0.00,,,0.00,0,Wunderground v.1.15,2013-02-19 05:23:00,
2013-02-19 00:33:00,41.2,38.8,30.26,WSW,244,0.0,0.0,91,0.00,,,0.00,0,Wunderground v.1.15,2013-02-19 05:33:00,
2013-02-19 00:43:00,41.2,39.1,30.26,WSW,244,0.0,0.0,92,0.00,,,0.00,0,Wunderground v.1.15,2013-02-19 05:43:00,
2013-02-19 00:53:00,41.2,39.1,30.25,WSW,244,0.0,0.0,92,0.00,,,0.00,0,Wunderground v.1.15,2013-02-19 05:53:00,
2013-02-19 01:03:00,41.4,39.5,30.26,WSW,244,0.0,0.0,93,0.00,,,0.00,0,Wunderground v.1.15,2013-02-19 06:03:00,
2013-02-19 01:13:00,41.7,39.8,30.26,WSW,244,0.0,0.0,93,0.00,,,0.00,0,Wunderground v.1.15,2013-02-19 06:13:00,
2013-02-19 01:23:00,42.1,40.2,30.25,WSW,244,0.0,0.0,93,0.00,,,0.00,0,Wunderground v.1.15,2013-02-19 06:23:00,
2013-02-19 01:33:00,42.4,40.5,30.25,WSW,244,0.0,0.0,93,0.00,,,0.00,0,Wunderground v.1.15,2013-02-19 06:33:00,
2013-02-19 01:43:00,42.7,40.8,30.25,WSW,244,0.0,0.0,93,0.00,,,0.00,0,Wunderground v.1.15,2013-02-19 06:43:00,
2013-02-19 01:53:00,42.7,40.8,30.25,WSW,244,0.0,0.0,93,0.00,,,0.00,0,Wunderground v.1.15,2013-02-19 06:53:00,
2013-02-19 02:03:00,42.7,40.8,30.24,WSW,244,0.0,0.0,93,0.00,,,0.00,0,Wunderground v.1.15,2013-02-19 07:03:00,
2013-02-19 02:13:00,42.7,40.8,30.24,WSW,244,0.0,0.0,93,0.00,,,0.00,0,Wunderground v.1.15,2013-02-19 07:13:00,
2013-02-19 02:23:00,42.6,40.7,30.23,WSW,244,0.0,0.0,93,0.00,,,0.00,0,Wunderground v.1.15,2013-02-19 07:23:00,
2013-02-19 02:33:00,42.7,40.8,30.21,WSW,244,0.0,0.0,93,0.00,,,0.00,0,Wunderground v.1.15,2013-02-19 07:33:00,
2013-02-19 02:43:00,42.8,40.9,30.21,WSW,244,0.0,0.0,93,0.00,,,0.00,0,Wunderground v.1.15,2013-02-19 07:43:00,
2013-02-19 02:53:00,42.8,40.9,30.21,WSW,244,0.0,0.0,93,0.00,,,0.00,0,Wunderground v.1.15,2013-02-19 07:53:00,
2013-02-19 03:03:00,42.8,41.2,30.20,WSW,244,0.0,0.0,94,0.00,,,0.00,0,Wunderground v.1.15,2013-02-19 08:03:00,
2013-02-19 03:13:00,42.9,41.3,30.20,WSW,244,0.0,0.0,94,0.00,,,0.00,0,Wunderground v.1.15,2013-02-19 08:13:00,
2013-02-19 03:23:00,43.1,41.5,30.19,WSW,244,0.0,0.0,94,0.00,,,0.00,0,Wunderground v.1.15,2013-02-19 08:23:00,
2013-02-19 03:33:00,43.3,42.0,30.18,WSW,244,0.0,0.0,95,0.00,,,0.00,0,Wunderground v.1.15,2013-02-19 08:33:00,
2013-02-19 03:43:00,43.6,42.3,30.18,WSW,244,0.0,0.0,95,0.00,,,0.00,0,Wunderground v.1.15,2013-02-19 08:43:00,
2013-02-19 03:53:00,44.0,42.7,30.17,WSW,244,0.0,0.0,95,0.00,,,0.00,0,Wunderground v.1.15,2013-02-19 08:53:00,
2013-02-19 04:03:00,44.2,42.9,30.16,WSW,244,0.0,0.0,95,0.00,,,0.00,0,Wunderground v.1.15,2013-02-19 09:03:00,
2013-02-19 04:13:00,44.3,43.0,30.16,WSW,244,0.0,0.0,95,0.00,,,0.00,0,Wunderground v.1.15,2013-02-19 09:13:00,
2013-02-19 04:23:00,44.3,43.0,30.16,WSW,244,0.0,0.0,95,0.00,,,0.00,0,Wunderground v.1.15,2013-02-19 09:23:00,
2013-02-19 04:33:00,44.9,43.8,30.15,WSW,244,0.0,1.0,96,0.00,,,0.00,0,Wunderground v.1.15,2013-02-19 09:33:00,
2013-02-19 04:43:00,45.3,44.2,30.15,WSW,244,0.0,0.0,96,0.00,,,0.00,0,Wunderground v.1.15,2013-02-19 09:43:00,
2013-02-19 04:53:00,45.4,44.3,30.15,WSW,244,0.0,0.0,96,0.00,,,0.00,0,Wunderground v.1.15,2013-02-19 09:53:00,
2013-02-19 05:03:00,45.2,44.1,30.15,WSW,244,0.0,0.0,96,0.00,,,0.00,0,Wunderground v.1.15,2013-02-19 10:03:00,
2013-02-19 05:13:00,45.0,43.9,30.15,WSW,244,0.0,0.0,96,0.00,,,0.00,0,Wunderground v.1.15,2013-02-19 10:13:00,
2013-02-19 05:23:00,44.8,43.7,30.15,WSW,244,0.0,0.0,96,0.00,,,0.00,0,Wunderground v.1.15,2013-02-19 10:23:00,
2013-02-19 05:33:00,45.3,44.2,30.14,WSW,244,0.0,0.0,96,0.00,,,0.00,0,Wunderground v.1.15,2013-02-19 10:33:00,
2013-02-19 05:43:00,46.5,45.7,30.14,WSW,244,0.0,0.0,97,0.00,,,0.00,0,Wunderground v.1.15,2013-02-19 10:43:00,
2013-02-19 05:53:00,46.9,46.1,30.14,WSW,244,0.0,0.0,97,0.00,,,0.00,0,Wunderground v.1.15,2013-02-19 10:53:00,
2013-02-19 06:03:00,46.8,46.0,30.14,WSW,244,0.0,0.0,97,0.00,,,0.00,0,Wunderground v.1.15,2013-02-19 11:03:00,
2013-02-19 06:13:00,46.6,45.8,30.14,WSW,244,0.0,0.0,97,0.00,,,0.00,0,Wunderground v.1.15,2013-02-19 11:13:00,
2013-02-19 06:23:00,46.7,45.9,30.14,WSW,244,0.0,0.0,97,0.00,,,0.00,0,Wunderground v.1.15,2013-02-19 11:23:00,
2013-02-19 06:33:00,47.8,47.3,30.13,WSW,244,0.0,0.0,98,0.00,,,0.00,0,Wunderground v.1.15,2013-02-19 11:33:00,
2013-02-19 06:43:00,48.9,48.4,30.13,WSW,244,0.0,0.0,98,0.00,,,0.00,0,Wunderground v.1.15,2013-02-19 11:43:00,
2013-02-19 06:53:00,49.4,48.9,30.13,WSW,244,0.0,0.0,98,0.00,,,0.00,0,Wunderground v.1.15,2013-02-19 11:53:00,
2013-02-19 07:03:00,50.0,49.5,30.12,WSW,244,0.0,0.0,98,0.00,,,0.00,9,Wunderground v.1.15,2013-02-19 12:03:00,
2013-02-19 07:13:00,50.7,50.2,30.12,WSW,244,0.0,0.0,98,0.00,,,0.00,19,Wunderground v.1.15,2013-02-19 12:13:00,
2013-02-19 07:23:00,51.2,50.7,30.12,WSW,244,0.0,0.0,98,0.00,,,0.00,26,Wunderground v.1.15,2013-02-19 12:23:00,
2013-02-19 07:33:00,52.1,51.6,30.13,WSW,244,0.0,0.0,98,0.00,,,0.00,37,Wunderground v.1.15,2013-02-19 12:33:00,
2013-02-19 07:43:00,52.6,52.1,30.13,WSW,244,0.0,0.0,98,0.00,,,0.00,65,Wunderground v.1.15,2013-02-19 12:43:00,
2013-02-19 07:53:00,53.0,52.5,30.14,South,184,0.0,1.0,98,0.00,,,0.00,40,Wunderground v.1.15,2013-02-19 12:53:00,
2013-02-19 08:03:00,53.4,52.8,30.14,SSE,158,0.0,2.0,98,0.00,,,0.00,47,Wunderground v.1.15,2013-02-19 13:03:00,
2013-02-19 08:13:00,53.8,53.0,30.14,West,267,0.0,0.0,97,0.00,,,0.00,114,Wunderground v.1.15,2013-02-19 13:13:00,
2013-02-19 08:23:00,54.7,53.6,30.14,NE,47,0.0,0.0,96,0.00,,,0.00,123,Wunderground v.1.15,2013-02-19 13:23:00,
2013-02-19 08:33:00,55.8,54.1,30.15,West,262,1.0,1.0,94,0.00,,,0.00,165,Wunderground v.1.15,2013-02-19 13:33:00,
2013-02-19 08:43:00,56.6,54.0,30.15,NW,326,0.0,0.0,91,0.00,,,0.00,162,Wunderground v.1.15,2013-02-19 13:43:00,
2013-02-19 08:53:00,57.2,54.0,30.15,WNW,287,1.0,1.0,89,0.00,,,0.00,167,Wunderground v.1.15,2013-02-19 13:53:00,
2013-02-19 09:03:00,57.7,53.9,30.14,West,263,1.0,1.0,87,0.00,,,0.00,209,Wunderground v.1.15,2013-02-19 14:03:00,
2013-02-19 09:13:00,58.2,54.0,30.14,SW,230,1.0,1.0,86,0.00,,,0.00,174,Wunderground v.1.15,2013-02-19 14:13:00,
2013-02-19 09:23:00,58.8,54.3,30.14,WSW,247,1.0,2.0,85,0.00,,,0.00,301,Wunderground v.1.15,2013-02-19 14:23:00,
2013-02-19 09:33:00,59.7,54.5,30.14,NNW,340,2.0,2.0,83,0.00,,,0.00,332,Wunderground v.1.15,2013-02-19 14:33:00,
2013-02-19 09:43:00,60.4,54.9,30.14,West,271,1.0,1.0,82,0.00,,,0.00,309,Wunderground v.1.15,2013-02-19 14:43:00,
2013-02-19 09:53:00,60.6,54.7,30.14,West,267,2.0,2.0,81,0.00,,,0.00,274,Wunderground v.1.15,2013-02-19 14:53:00,
2013-02-19 10:03:00,60.8,54.6,30.13,SE,133,2.0,2.0,80,0.00,,,0.00,392,Wunderground v.1.15,2013-02-19 15:03:00,
2013-02-19 10:13:00,61.4,54.8,30.13,SW,218,2.0,2.0,79,0.00,,,0.00,622,Wunderground v.1.15,2013-02-19 15:13:00,
2013-02-19 10:23:00,61.7,54.8,30.13,SE,128,1.0,1.0,78,0.00,,,0.00,243,Wunderground v.1.15,2013-02-19 15:23:00,
2013-02-19 10:33:00,60.6,54.4,30.12,WSW,244,2.0,2.0,80,0.00,,,0.00,267,Wunderground v.1.15,2013-02-19 15:33:00,
2013-02-19 10:43:00,60.2,54.3,30.12,NNE,17,1.0,1.0,81,0.00,,,0.00,137,Wunderground v.1.15,2013-02-19 15:43:00,
2013-02-19 10:53:00,59.9,54.4,30.11,ESE,115,1.0,1.0,82,0.00,,,0.00,269,Wunderground v.1.15,2013-02-19 15:53:00,
2013-02-19 11:03:00,60.0,54.5,30.11,WSW,257,1.0,2.0,82,0.00,,,0.00,403,Wunderground v.1.15,2013-02-19 16:03:00,
2013-02-19 11:13:00,61.4,55.2,30.11,NNE,29,1.0,1.0,80,0.00,,,0.00,329,Wunderground v.1.15,2013-02-19 16:13:00,
2013-02-19 11:23:00,61.8,54.9,30.11,NE,56,2.0,2.0,78,0.00,,,0.00,269,Wunderground v.1.15,2013-02-19 16:23:00,
2013-02-19 11:43:00,60.9,54.3,30.12,WSW,241,1.0,1.0,79,0.00,,,0.00,278,Wunderground v.1.15,2013-02-19 16:43:00,
2013-02-19 11:53:00,60.8,54.2,30.10,WNW,302,1.0,1.0,79,0.00,,,0.00,207,Wunderground v.1.15,2013-02-19 16:53:00,
2013-02-19 12:03:00,60.5,54.3,30.09,South,171,1.0,2.0,80,0.00,,,0.00,148,Wunderground v.1.15,2013-02-19 17:03:00,
2013-02-19 12:13:00,60.1,53.9,30.09,West,279,1.0,1.0,80,0.00,,,0.00,220,Wunderground v.1.15,2013-02-19 17:13:00,
2013-02-19 12:23:00,60.0,54.2,30.08,SW,219,1.0,1.0,81,0.00,,,0.00,172,Wunderground v.1.15,2013-02-19 17:23:00,
2013-02-19 12:33:00,60.0,54.8,30.08,WSW,245,1.0,1.0,83,0.00,,,0.00,243,Wunderground v.1.15,2013-02-19 17:33:00,
2013-02-19 12:43:00,60.1,54.9,30.08,NNE,13,1.0,1.0,83,0.00,,,0.00,171,Wunderground v.1.15,2013-02-19 17:43:00,
2013-02-19 12:53:00,60.1,54.9,30.07,NNE,14,1.0,1.0,83,0.00,,,0.00,69,Wunderground v.1.15,2013-02-19 17:53:00,
2013-02-19 13:03:00,59.0,54.8,30.06,WNW,302,1.0,1.0,86,0.00,,,0.00,51,Wunderground v.1.15,2013-02-19 18:03:00,
2013-02-19 13:13:00,58.1,54.9,30.06,WNW,301,1.0,1.0,89,0.00,,,0.01,54,Wunderground v.1.15,2013-02-19 18:13:00,
2013-02-19 13:23:00,57.4,54.8,30.05,WSW,239,1.0,1.0,91,0.08,,,0.03,63,Wunderground v.1.15,2013-02-19 18:23:00,
2013-02-19 13:33:00,57.0,55.0,30.04,WNW,302,1.0,1.0,93,0.09,,,0.04,65,Wunderground v.1.15,2013-02-19 18:33:00,
2013-02-19 13:43:00,56.7,54.7,30.04,West,261,1.0,1.0,93,0.04,,,0.04,74,Wunderground v.1.15,2013-02-19 18:43:00,
2013-02-19 13:53:00,56.6,54.9,30.03,ENE,63,1.0,4.0,94,0.00,,,0.05,72,Wunderground v.1.15,2013-02-19 18:53:00,
2013-02-19 14:04:00,56.5,55.1,30.02,WNW,299,1.0,1.0,95,0.00,,,0.05,74,Wunderground v.1.15,2013-02-19 19:04:00,
2013-02-19 14:13:00,56.5,55.1,30.02,South,184,1.0,1.0,95,0.04,,,0.06,162,Wunderground v.1.15,2013-02-19 19:13:00,
2013-02-19 14:23:00,56.9,55.8,30.01,SW,217,1.0,1.0,96,0.04,,,0.06,178,Wunderground v.1.15,2013-02-19 19:23:00,
2013-02-19 14:33:00,57.1,55.7,30.01,NW,313,1.0,1.0,95,0.00,,,0.06,158,Wunderground v.1.15,2013-02-19 19:33:00,
2013-02-19 14:43:00,57.3,55.9,30.01,WNW,302,1.0,1.0,95,0.00,,,0.06,153,Wunderground v.1.15,2013-02-19 19:43:00,
2013-02-19 14:53:00,57.2,55.8,30.00,SSW,213,1.0,1.0,95,0.00,,,0.06,60,Wunderground v.1.15,2013-02-19 19:53:00,
2013-02-19 15:03:00,56.9,55.5,29.99,West,267,1.0,1.0,95,0.00,,,0.06,42,Wunderground v.1.15,2013-02-19 20:03:00,
2013-02-19 15:13:00,56.8,55.4,29.99,SW,223,1.0,6.0,95,0.26,,,0.10,67,Wunderground v.1.15,2013-02-19 20:13:00,
2013-02-19 15:23:00,56.8,55.7,29.99,SSE,149,1.0,1.0,96,0.11,,,0.11,60,Wunderground v.1.15,2013-02-19 20:23:00,
2013-02-19 15:33:00,56.9,55.8,29.99,SW,215,1.0,1.0,96,0.07,,,0.12,54,Wunderground v.1.15,2013-02-19 20:33:00,
2013-02-19 15:43:00,57.0,55.9,29.99,WNW,291,1.0,1.0,96,0.05,,,0.13,39,Wunderground v.1.15,2013-02-19 20:43:00,
2013-02-19 15:53:00,56.9,55.8,29.99,West,265,1.0,1.0,96,0.05,,,0.13,58,Wunderground v.1.15,2013-02-19 20:53:00,
2013-02-19 16:03:00,56.9,56.1,29.98,West,265,0.0,0.0,97,0.00,,,0.14,49,Wunderground v.1.15,2013-02-19 21:03:00,
2013-02-19 16:13:00,57.0,56.2,29.98,West,265,0.0,0.0,97,0.00,,,0.14,54,Wunderground v.1.15,2013-02-19 21:13:00,
2013-02-19 16:23:00,57.0,56.2,29.98,NNW,339,0.0,0.0,97,0.00,,,0.14,25,Wunderground v.1.15,2013-02-19 21:23:00,
2013-02-19 16:33:00,57.0,56.2,29.98,NNW,339,0.0,0.0,97,0.00,,,0.14,16,Wunderground v.1.15,2013-02-19 21:33:00,
2013-02-19 16:43:00,57.0,56.2,29.98,NNW,339,0.0,0.0,97,0.00,,,0.14,18,Wunderground v.1.15,2013-02-19 21:43:00,
2013-02-19 16:53:00,57.0,56.2,29.99,SW,215,0.0,1.0,97,0.00,,,0.14,23,Wunderground v.1.15,2013-02-19 21:53:00,
2013-02-19 17:03:00,57.0,56.2,29.99,SW,219,0.0,1.0,97,0.00,,,0.14,23,Wunderground v.1.15,2013-02-19 22:03:00,
2013-02-19 17:13:00,56.9,56.1,29.99,SW,219,0.0,1.0,97,0.00,,,0.14,28,Wunderground v.1.15,2013-02-19 22:13:00,
2013-02-19 17:23:00,56.9,56.1,30.00,SW,219,0.0,0.0,97,0.00,,,0.14,12,Wunderground v.1.15,2013-02-19 22:23:00,
2013-02-19 17:33:00,56.7,55.9,30.00,WSW,255,0.0,1.0,97,0.00,,,0.14,9,Wunderground v.1.15,2013-02-19 22:33:00,
2013-02-19 17:43:00,56.7,55.9,30.00,NW,319,1.0,2.0,97,0.00,,,0.14,11,Wunderground v.1.15,2013-02-19 22:43:00,
2013-02-19 17:53:00,56.6,55.8,30.01,WSW,246,1.0,1.0,97,0.00,,,0.14,9,Wunderground v.1.15,2013-02-19 22:53:00,
2013-02-19 18:03:00,56.5,55.7,30.01,WSW,246,0.0,1.0,97,0.00,,,0.14,0,Wunderground v.1.15,2013-02-19 23:03:00,
2013-02-19 18:13:00,56.5,55.7,30.01,WSW,246,0.0,0.0,97,0.00,,,0.15,0,Wunderground v.1.15,2013-02-19 23:13:00,
2013-02-19 18:23:00,56.5,55.7,30.01,SW,218,0.0,0.0,97,0.06,,,0.16,0,Wunderground v.1.15,2013-02-19 23:23:00,
2013-02-19 18:33:00,56.5,55.9,30.01,NW,304,1.0,1.0,98,0.04,,,0.16,0,Wunderground v.1.15,2013-02-19 23:33:00,
2013-02-19 18:43:00,56.5,55.9,30.01,West,266,1.0,1.0,98,0.00,,,0.17,0,Wunderground v.1.15,2013-02-19 23:43:00,
2013-02-19 18:53:00,56.5,55.9,30.01,WSW,247,1.0,1.0,98,0.00,,,0.17,0,Wunderground v.1.15,2013-02-19 23:53:00,
2013-02-19 19:03:00,56.5,55.9,30.01,West,270,1.0,1.0,98,0.00,,,0.17,0,Wunderground v.1.15,2013-02-20 00:03:00,
2013-02-19 19:13:00,56.4,55.8,30.01,WSW,243,1.0,1.0,98,0.00,,,0.17,0,Wunderground v.1.15,2013-02-20 00:13:00,
2013-02-19 19:23:00,56.3,55.7,30.02,WSW,245,1.0,2.0,98,0.00,,,0.17,0,Wunderground v.1.15,2013-02-20 00:23:00,
2013-02-19 19:33:00,56.1,55.5,30.02,SW,236,1.0,1.0,98,0.00,,,0.17,0,Wunderground v.1.15,2013-02-20 00:33:00,
2013-02-19 19:43:00,56.1,55.5,30.02,SW,236,0.0,0.0,98,0.00,,,0.17,0,Wunderground v.1.15,2013-02-20 00:43:00,
2013-02-19 19:53:00,56.1,55.5,30.02,SW,228,1.0,1.0,98,0.00,,,0.17,0,Wunderground v.1.15,2013-02-20 00:53:00,
2013-02-19 20:03:00,56.0,55.4,30.03,WNW,302,0.0,0.0,98,0.00,,,0.17,0,Wunderground v.1.15,2013-02-20 01:03:00,
2013-02-19 20:13:00,55.9,55.3,30.03,WNW,302,0.0,0.0,98,0.00,,,0.17,0,Wunderground v.1.15,2013-02-20 01:13:00,
2013-02-19 20:23:00,55.7,55.1,30.03,WNW,302,0.0,0.0,98,0.00,,,0.17,0,Wunderground v.1.15,2013-02-20 01:23:00,
2013-02-19 20:33:00,55.4,54.8,30.03,WNW,302,0.0,0.0,98,0.00,,,0.17,0,Wunderground v.1.15,2013-02-20 01:33:00,
2013-02-19 20:43:00,55.0,54.4,30.03,West,260,0.0,0.0,98,0.00,,,0.17,0,Wunderground v.1.15,2013-02-20 01:43:00,
2013-02-19 20:53:00,54.4,53.8,30.04,WSW,251,0.0,0.0,98,0.00,,,0.17,0,Wunderground v.1.15,2013-02-20 01:53:00,
2013-02-19 21:03:00,53.9,53.3,30.04,WSW,251,0.0,0.0,98,0.00,,,0.17,0,Wunderground v.1.15,2013-02-20 02:03:00,
2013-02-19 21:13:00,53.4,52.6,30.04,WSW,251,0.0,0.0,97,0.00,,,0.17,0,Wunderground v.1.15,2013-02-20 02:13:00,
2013-02-19 21:23:00,53.0,52.5,30.04,WSW,251,0.0,0.0,98,0.00,,,0.17,0,Wunderground v.1.15,2013-02-20 02:23:00,
2013-02-19 21:33:00,52.5,52.0,30.04,WSW,251,0.0,0.0,98,0.00,,,0.17,0,Wunderground v.1.15,2013-02-20 02:33:00,
2013-02-19 21:43:00,52.2,51.4,30.04,WSW,251,0.0,0.0,97,0.00,,,0.17,0,Wunderground v.1.15,2013-02-20 02:43:00,
2013-02-19 21:53:00,52.0,51.5,30.04,WSW,251,0.0,0.0,98,0.00,,,0.17,0,Wunderground v.1.15,2013-02-20 02:53:00,
2013-02-19 22:03:00,51.8,51.3,30.05,WSW,251,0.0,0.0,98,0.00,,,0.17,0,Wunderground v.1.15,2013-02-20 03:03:00,
2013-02-19 22:13:00,51.6,51.1,30.05,WSW,251,0.0,0.0,98,0.00,,,0.17,0,Wunderground v.1.15,2013-02-20 03:13:00,
2013-02-19 22:23:00,51.2,50.7,30.05,WSW,251,0.0,0.0,98,0.00,,,0.17,0,Wunderground v.1.15,2013-02-20 03:23:00,
2013-02-19 22:33:00,51.1,50.6,30.05,WSW,251,0.0,0.0,98,0.00,,,0.17,0,Wunderground v.1.15,2013-02-20 03:33:00,
2013-02-19 22:43:00,51.1,50.6,30.05,WSW,251,0.0,0.0,98,0.00,,,0.17,0,Wunderground v.1.15,2013-02-20 03:43:00,
2013-02-19 22:53:00,51.1,50.6,30.05,WSW,251,0.0,0.0,98,0.00,,,0.17,0,Wunderground v.1.15,2013-02-20 03:53:00,
2013-02-19 23:13:00,50.9,50.4,30.04,WSW,251,0.0,0.0,98,0.00,,,0.17,0,Wunderground v.1.15,2013-02-20 04:13:00,
2013-02-19 23:23:00,50.7,50.2,30.05,WSW,251,0.0,1.0,98,0.00,,,0.17,0,Wunderground v.1.15,2013-02-20 04:23:00,
2013-02-19 23:33:00,50.5,50.0,30.05,WSW,251,0.0,0.0,98,0.00,,,0.17,0,Wunderground v.1.15,2013-02-20 04:33:00,
2013-02-19 23:43:00,50.4,49.9,30.05,WSW,251,0.0,0.0,98,0.00,,,0.17,0,Wunderground v.1.15,2013-02-20 04:43:00,
2013-02-19 23:53:00,50.4,49.9,30.05,WSW,251,0.0,0.0,98,0.00,,,0.17,0,Wunderground v.1.15,2013-02-20 04:53:00,